weather.gov     
National Weather Service

Regional Weather Roundup
NWS Homepage
This page is being discontinued on March 12, 2014.
The same data is available at this site. Please update your bookmarks.
Thank you, and we apologize for the inconvenience.
Please send an email to SR-SRH.Webmaster@noaa.gov with any concerns.


Current Version
Previous Version:    01  02  03  04  05  06  07  08  09  10  11  12  13  14  15  16  17  18  19  20  21  22  23  24  25  26  27  
[Printable]
317
ASUS44 KMOB 021410
RWRMOB
REGIONAL WEATHER ROUNDUP
NATIONAL WEATHER SERVICE MOBILE AL
900 AM CDT TUE SEP 02 2014

NOTE: "FAIR" INDICATES FEW OR NO CLOUDS BELOW 12,000 FEET WITH NO
      SIGNIFICANT WEATHER AND/OR OBSTRUCTIONS TO VISIBILITY.

  * THESE STATIONS ARE PART OF THE UNIVERSITY OF SOUTH ALABAMA
    MESONET AND ARE NOT UNDER NWS OR FAA QUALITY CONTROL.

ALZ061>064-021500-
COASTAL ALABAMA

CITY           SKY/WX    TMP DP  RH WIND       PRES   REMARKS
MOBILE REG APT MOSUNNY   84  77  79 CALM      30.10S
BROOKLEY FIELD MOSUNNY   86  77  74 E5        30.10S HX  97
USA CAMPUS*      N/A     86  77  74 CALM      30.07F HX  97
DOG RIVER*       N/A     86  77  74 CALM      30.09S HX  97


CITY           SKY/WX    TMP DP  RH WIND       PRES   REMARKS
MOUNT VERNON*    N/A     81  75  83 CALM      30.08F
SARALAND*      NOT AVBL
BAY MINETTE*   NOT AVBL
LOXLEY*          N/A     82  75  78 SE5       30.09S
ROBERTSDALE*     N/A     77  70  78 CALM      30.09S
FAIRHOPE*        N/A     81  77  89 CALM      30.09R
ELBERTA*         N/A     86  75  70 S2        30.09S HX  95
FOLEY*         NOT AVBL
GRAND BAY*       N/A     86  75  70 CALM      30.07S HX  95
DAUPHIN ISLND* NOT AVBL
BON SCOUR NWR* NOT AVBL
GULF SHORES    PTSUNNY   86  75  68 S3        30.09S HX  95

$$

ALZ051>060-021500-
INTERIOR SOUTHWEST AND SOUTH CENTRAL ALABAMA

CITY           SKY/WX    TMP DP  RH WIND       PRES   REMARKS
GREENVILLE     SUNNY     83  75  77 CALM      30.11S
EVERGREEN      SUNNY     82  76  81 CALM      30.11S
CASTLEBERRY*   NOT AVBL
ATMORE*          N/A     82  77  83 SE6       30.11S
DIXIE*         NOT AVBL
ANDALUSIA/OPP  SUNNY     87  76  69 CALM      30.11F HX  97
ANDALUSIA*     NOT AVBL
FLORALA APT    NOT AVBL
FLORALA*         N/A     82  75  78 E2        30.09S

$$

FLZ001>006-021500-
WESTERN FLORIDA PANHANDLE

CITY           SKY/WX    TMP DP  RH WIND       PRES   REMARKS
PENSACOLA      MOSUNNY   83  73  72 W5        30.09S
NAS PENSACOLA  NOT AVBL
MILTON         NOT AVBL
WHTNG S FIELD  NOT AVBL


CITY           SKY/WX    TMP DP  RH WIND       PRES   REMARKS
WALNUT HILL*   NOT AVBL
JAY*           NOT AVBL
DUKE FIELD     MOSUNNY   85  78  78 CALM      30.11R HX  96
CRESTVIEW      SUNNY     84  76  76 E3        30.12S
VALPARAISO     MOSUNNY   86  76  73 NE3       30.11R HX  96
DESTIN         SUNNY     87  78  74 E6        30.10R HX 100

$$

MSZ076-079-021500-
INTERIOR SOUTHEAST MISSISSIPPI

CITY           SKY/WX    TMP DP  RH WIND       PRES   REMARKS
LEAKESVILLE*   NOT AVBL
AGRICOLA*      NOT AVBL

$$

MARINE OBSERVATIONS

STATION/POSITION TIME  TEMP    WIND        PRES    WAVE
                       AIR SEA DIR/SP/G            HT/PER
                 (UTC) (F)     (DEG/KT/KT) (MB)    (FT/S)
PASCAGOULA       1400   86     170/  2/  3 1018.4R
PETIT BOIS ISLND 1400   86     200/  3/  3 1018.9F
GRAND BAY        1200   83     210/  4     1019.0S
KATRINA CUT      1300   85     220/  1     1019.0S
CEDAR POINT      1300   84     240/  2     1018.6S
E DAUPHIN ISLAND 1300   85      CALM  /  3 1018.5R
MIDDLE BAY LIGHT 1300   85     280/  4     1018.6R
USCG MOBILE BAY  1400   83 87  110/  6/  7 1017.7R
STATE DOCKS      1400   86 86              1018.5R
MEAHER PARK      1300   85     130/  2     1018.0F
WEEKS BAY        1300   78                   N/A
FORT MORGAN      1400   86     180/  4/  6 1018.5R
12 S ORANGE BCH  1400   85 85  180/  6/  6 1018.9R   3/ 7
PENSACOLA BAY    1400   87 87  170/  3/  5 1019.3S
64 S DAUPHIN ISL 1400   84     130/  4     1018.8R
67 S FORT MORGAN 1300   83                 1018.6R

$$

SELECTED LOCATIONS ACROSS THE REGION

CITY           SKY/WX    TMP DP  RH WIND       PRES   REMARKS
NEW ORLEANS    PTSUNNY   85  77  77 S7        30.06S HX  95
GULFPORT       MOSUNNY   86  77  74 S3        30.07S HX  97
PASCAGOULA AP  SUNNY     84  77  79 CALM      30.08S
PASCAGOULA*      N/A     82  79  89 CALM      30.07F
HATTIESBURG    CLOUDY    79  75  87 CALM      30.08S
LAUREL         CLOUDY    75  72  88 CALM      30.10R
MERIDIAN       CLOUDY    77  74  90 S6        30.09R
JACKSON        CLOUDY    79  75  87 S6        30.08R
MONTGOMERY     MOSUNNY   83  75  77 CALM      30.11S
TROY           SUNNY     82  75  79 CALM      30.13S
KINSTON*       NOT AVBL
GENEVA*          N/A     82  75  78 NE2       30.13F
ASHFORD*       NOT AVBL
DOTHAN         MOSUNNY   81  74  79 E5        30.17S
PANAMA CITY    SUNNY     83  76  79 NE6       30.10S

$$





U.S. Dept. of Commerce
NOAA National Weather Service
1325 East West Highway
Silver Spring, MD 20910
E-mail: w-nws.webmaster@noaa.gov
Page last modified: May 16, 2007
NATIONAL WEATHER SERVICE: for Safety, for Work, for Fun - FOR LIFE